Regional Weather Roundup
Issued by NWS Sioux Falls, SD

Home | Current Version | Previous Version | Text Only | Print | Product List | Glossary Off
Versions: 1 2 3 4 5 6 7 8 9 10 11 12 13 14 15 16 17 18 19 20 21 22 23 24 25 26 27 28 29 30 31 32 33 34 35 36 37 38 39 40 41 42 43 44 45 46 47 48 49 50

382
ASUS43 KFSD 230810
RWRFSD

WEATHER ROUNDUP FOR SE SOUTH DAKOTA/SW MINNESOTA/NW IOWA
NATIONAL WEATHER SERVICE SIOUX FALLS SD
300 AM CDT SAT SEP 23 2017

NOTE: "FAIR" INDICATES FEW OR NO CLOUDS BELOW 12,000 FEET WITH NO
SIGNIFICANT WEATHER AND OR OBSTRUCTIONS TO VISIBILITY.


SDZ038>040-050-052>070-230900-
SOUTHEAST SOUTH DAKOTA

CITY           SKY/WX    TMP DP  RH WIND       PRES   REMARKS
BROOKINGS      MOCLDY    61  59  93 CALM      29.86F
CHAMBERLAIN    RAIN      54  52  92 W13G20    29.99R
HURON          CLOUDY    55  52  89 NW13      29.91R
MADISON        FAIR      59  59 100 CALM      29.87S
MITCHELL       CLOUDY    56  52  86 NW12      29.92R
SIOUX FALLS    PTCLDY    64  63  96 N3        29.85F
WINNER         LGT RAIN  51  48  89 N12       29.95F
YANKTON        PTCLDY    61  58  90 NW8       29.88R
$$

MNZ071-072-080-081-089-090-097-098-230900-
SOUTHWEST MINNESOTA

CITY           SKY/WX    TMP DP  RH WIND       PRES   REMARKS
FAIRMONT       CLEAR     74  68  81 S12       29.90R
JACKSON        CLEAR     73  66  78 S10G17    29.90S
LUVERNE        PTCLDY    72  64  78 S7        29.87S
MARSHALL       PTCLDY    67  64  90 NW9       29.86R
MONTEVIDEO     CLOUDY    66  64  94 N9G17     29.85R
PIPESTONE      PTCLDY    68  63  83 CALM      29.87R
REDWOOD FALLS  PTCLDY    77  67  71 SW10      29.83R
TRACY          PTCLDY    76  69  77 SW14G22   29.84S
WORTHINGTON    CLEAR     74  68  81 S12G18    29.89R
$$

IAZ001>003-012>014-020>022-031-032-NEZ013-014-SDZ071-230900-
NORTHWEST IOWA

CITY           SKY/WX    TMP DP  RH WIND       PRES   REMARKS
CHEROKEE       CLEAR     73  69  88 S7        29.89S
DENISON        CLEAR     73  68  83 S8G15     29.92R
ESTHERVILLE    CLEAR     71  68  90 S9        29.90R
LE MARS        CLEAR     73  68  83 S6        29.88R
ORANGE CITY    CLOUDY    75  70  83 S7        29.89R
SHELDON        PTCLDY    73  68  83 S9        29.87S
SIOUX CITY     CLEAR     73  69  87 SE6       29.87R
SPENCER        CLEAR     71  67  87 SE6       29.91R
STORM LAKE     CLEAR     72  68  88 S7        29.92R
$$

ABBREVIATIONS USED IN REMARKS
   TC - TEMPERATURE IN CELSIUS
  WCI - WIND CHILL INDEX
   HX - HEAT INDEX
  VSB - VISIBILITY





USA.gov is the U.S. government's official web portal to all federal, state and local government web resources and services.